Starlink 3151

operational
NORAD ID: 49408 Int'l Des: 2021-104 Owner: SPXS Country: US Constellation: starlink
LEOCIRCULAR

About Starlink 3151

Description loading...

Live Position

Loading 3D Globe...

Upcoming Passes

Altitude History

Altitude vs Time

uPlot chart will show altitude changes over time

Two-Line Element Set

1 49408U 21104A 26049.58336806 .00080553 00000-0 47681-2 0 9992
2 49408 53.2170 314.8998 0001399 119.5993 327.5352 15.10730773 5798
Epoch: Feb 18, 2026 • Age: 9 hours

Current Status

Altitude 538.8 km
Velocity 7.60 km/s
Sub-Earth Point 48.90°N, 129.1°W
Launch Date Nov 13, 2021
Age 4.2 years
Type internet

Technical Details

Classification Payload
Mass 290.00 kg
Dry Mass 270.00 kg
Total Mass 290.00 kg
Length 0.20 m
Diameter 2.80 m
Span 9.00 m
Shape Box + pan
Manufacturer SPXS
Bus Type Starlink
Phase Status In Orbit
Owner/State SPXS/US

Large Constellations

Loading constellations...